Hourly Weather Kizgi

Today, 27 July, Tuesday

Time Temperature Precipitation Wind Pressure Humidity
00:00 +12°C° 0 mm 1 mps 746 mmHg 66%
01:00 +11°C° 0 mm 1 mps 746 mmHg 67%
02:00 +11°C° 0 mm 1 mps 746 mmHg 68%
03:00 +11°C° 0 mm 1 mps 746 mmHg 69%
04:00 +10°C° 0 mm 1 mps 745 mmHg 70%
05:00 +12°C° 0 mm 1 mps 745 mmHg 66%
06:00 +14°C° 0 mm 1 mps 745 mmHg 61%
07:00 +15°C° 0 mm 1 mps 745 mmHg 57%
08:00 +17°C° 0 mm 2 mps 745 mmHg 54%
09:00 +19°C° 0 mm 2 mps 744 mmHg 50%
10:00 +20°C° 0 mm 3 mps 744 mmHg 47%
11:00 +21°C° 0 mm 3 mps 744 mmHg 44%
12:00 +22°C° 0 mm 3 mps 743 mmHg 42%
13:00 +24°C° 0 mm 3 mps 743 mmHg 39%
14:00 +24°C° 0 mm 3 mps 742 mmHg 39%
15:00 +25°C° 0 mm 3 mps 742 mmHg 39%
16:00 +25°C° 0 mm 3 mps 742 mmHg 38%
17:00 +22°C° 0 mm 3 mps 741 mmHg 47%
18:00 +21°C° 0 mm 2 mps 741 mmHg 55%
19:00 +19°C° 0 mm 2 mps 741 mmHg 64%
20:00 +18°C° 0.1 mm 2 mps 741 mmHg 70%
21:00 +18°C° 0.1 mm 1 mps 741 mmHg 76%
22:00 +16°C° 0.1 mm 1 mps 741 mmHg 82%
23:00 +15°C° 0.1 mm 1 mps 741 mmHg 87%

Tomorrow, 28 July, Wednesday

Time Temperature Precipitation Wind Pressure Humidity
00:00 +14°C° 0.1 mm 1 mps 741 mmHg 91%
01:00 +13°C° 0.1 mm 1 mps 741 mmHg 96%
02:00 +12°C° 0 mm 1 mps 741 mmHg 96%
03:00 +12°C° 0 mm 1 mps 741 mmHg 96%
04:00 +10°C° 0 mm 0 mps 741 mmHg 96%
05:00 +12°C° 0 mm 1 mps 741 mmHg 94%
06:00 +13°C° 0 mm 1 mps 741 mmHg 91%
07:00 +14°C° 0 mm 1 mps 741 mmHg 89%
08:00 +16°C° 0 mm 2 mps 741 mmHg 77%
09:00 +17°C° 0 mm 2 mps 741 mmHg 64%
10:00 +19°C° 0 mm 3 mps 742 mmHg 52%
11:00 +19°C° 0 mm 4 mps 741 mmHg 46%
12:00 +20°C° 0 mm 4 mps 741 mmHg 40%
13:00 +21°C° 0 mm 4 mps 741 mmHg 34%
14:00 +21°C° 0 mm 4 mps 741 mmHg 36%
15:00 +20°C° 0 mm 4 mps 741 mmHg 37%
16:00 +20°C° 0 mm 4 mps 741 mmHg 38%
17:00 +19°C° 0 mm 3 mps 741 mmHg 46%
18:00 +18°C° 0 mm 2 mps 741 mmHg 53%
19:00 +18°C° 0 mm 1 mps 741 mmHg 61%
20:00 +15°C° 0 mm 1 mps 741 mmHg 64%
21:00 +13°C° 0 mm 1 mps 742 mmHg 66%
22:00 +12°C° 0 mm 1 mps 742 mmHg 69%
23:00 +12°C° 0 mm 1 mps 742 mmHg 69%

Day after tomorrow, 29 July, Thursday

Time Temperature Precipitation Wind Pressure Humidity
00:00 +12°C° 0 mm 1 mps 742 mmHg 68%
01:00 +12°C° 0 mm 1 mps 742 mmHg 68%
02:00 +11°C° 0 mm 1 mps 742 mmHg 70%
03:00 +10°C° 0 mm 1 mps 742 mmHg 71%
04:00 +10°C° 0 mm 1 mps 742 mmHg 73%
05:00 +12°C° 0 mm 1 mps 742 mmHg 69%
06:00 +13°C° 0 mm 1 mps 742 mmHg 64%
07:00 +15°C° 0 mm 1 mps 742 mmHg 59%
08:00 +17°C° 0 mm 2 mps 742 mmHg 54%
09:00 +19°C° 0 mm 2 mps 742 mmHg 48%
10:00 +21°C° 0 mm 3 mps 742 mmHg 43%
11:00 +22°C° 0 mm 3 mps 741 mmHg 39%
12:00 +24°C° 0 mm 3 mps 741 mmHg 35%
13:00 +26°C° 0 mm 3 mps 741 mmHg 31%
14:00 +26°C° 0 mm 3 mps 740 mmHg 29%
15:00 +26°C° 0 mm 3 mps 740 mmHg 28%
16:00 +27°C° 0 mm 3 mps 739 mmHg 27%
17:00 +25°C° 0 mm 2 mps 739 mmHg 36%
18:00 +23°C° 0 mm 2 mps 739 mmHg 44%
19:00 +20°C° 0 mm 2 mps 738 mmHg 53%
20:00 +19°C° 0.3 mm 2 mps 739 mmHg 66%
21:00 +17°C° 0.3 mm 2 mps 739 mmHg 80%
22:00 +16°C° 0.3 mm 2 mps 739 mmHg 94%
23:00 +16°C° 1.7 mm 2 mps 739 mmHg 95%

30 July, Friday

Time Temperature Precipitation Wind Pressure Humidity
00:00 +16°C° 1.7 mm 2 mps 738 mmHg 97%
01:00 +16°C° 1.7 mm 2 mps 738 mmHg 98%
02:00 +16°C° 0.7 mm 2 mps 737 mmHg 98%
03:00 +16°C° 0.7 mm 2 mps 737 mmHg 98%
04:00 +16°C° 0.7 mm 2 mps 737 mmHg 98%
05:00 +17°C° 0.1 mm 2 mps 737 mmHg 98%
06:00 +17°C° 0.1 mm 2 mps 737 mmHg 98%
07:00 +17°C° 0.1 mm 2 mps 737 mmHg 98%
08:00 +18°C° 0.2 mm 2 mps 737 mmHg 96%
09:00 +19°C° 0.2 mm 2 mps 737 mmHg 94%
10:00 +20°C° 0.2 mm 2 mps 737 mmHg 92%
11:00 +20°C° 0.4 mm 2 mps 737 mmHg 90%
12:00 +21°C° 0.4 mm 2 mps 736 mmHg 88%
13:00 +23°C° 0.4 mm 2 mps 736 mmHg 86%
14:00 +23°C° 0.3 mm 2 mps 736 mmHg 86%
15:00 +23°C° 0.3 mm 2 mps 736 mmHg 86%
16:00 +23°C° 0.3 mm 2 mps 736 mmHg 86%
17:00 +23°C° 0.3 mm 2 mps 736 mmHg 87%
18:00 +21°C° 0.3 mm 2 mps 736 mmHg 88%
19:00 +22°C° 0.3 mm 1 mps 736 mmHg 89%
20:00 +21°C° 0.3 mm 1 mps 736 mmHg 91%
21:00 +20°C° 0.3 mm 1 mps 736 mmHg 93%
22:00 +19°C° 0.3 mm 1 mps 736 mmHg 95%
23:00 +19°C° 0.4 mm 1 mps 736 mmHg 95%

31 July, Saturday

Time Temperature Precipitation Wind Pressure Humidity
00:00 +17°C° 0.4 mm 2 mps 737 mmHg 96%
01:00 +17°C° 0.4 mm 2 mps 737 mmHg 97%
02:00 +17°C° 0.1 mm 2 mps 737 mmHg 97%
03:00 +17°C° 0.1 mm 2 mps 737 mmHg 97%
04:00 +16°C° 0.1 mm 1 mps 737 mmHg 97%
05:00 +17°C° 0 mm 2 mps 738 mmHg 96%
06:00 +18°C° 0 mm 2 mps 738 mmHg 95%
07:00 +19°C° 0 mm 2 mps 738 mmHg 94%
08:00 +21°C° 0.1 mm 2 mps 738 mmHg 84%
09:00 +24°C° 0.1 mm 3 mps 739 mmHg 75%
10:00 +26°C° 0.1 mm 3 mps 739 mmHg 65%
11:00 +27°C° 0 mm 4 mps 739 mmHg 56%
12:00 +29°C° 0 mm 4 mps 739 mmHg 47%
13:00 +30°C° 0 mm 4 mps 739 mmHg 38%
14:00 +30°C° 0 mm 4 mps 739 mmHg 38%
15:00 +30°C° 0 mm 4 mps 739 mmHg 38%
16:00 +30°C° 0 mm 3 mps 739 mmHg 38%
17:00 +28°C° 0 mm 2 mps 739 mmHg 48%
18:00 +26°C° 0 mm 1 mps 739 mmHg 57%
19:00 +23°C° 0 mm 0 mps 739 mmHg 66%
20:00 +21°C° 0 mm 0 mps 740 mmHg 69%
21:00 +22°C° 0 mm 1 mps 740 mmHg 72%
22:00 +20°C° 0 mm 1 mps 740 mmHg 75%
23:00 +19°C° 0 mm 1 mps 740 mmHg 76%

1 August, Sunday

Time Temperature Precipitation Wind Pressure Humidity
00:00 +19°C° 0 mm 1 mps 740 mmHg 78%
01:00 +18°C° 0 mm 1 mps 741 mmHg 79%
02:00 +18°C° 0 mm 1 mps 740 mmHg 79%
03:00 +18°C° 0 mm 1 mps 740 mmHg 79%
04:00 +18°C° 0 mm 1 mps 740 mmHg 79%
05:00 +19°C° 0 mm 1 mps 740 mmHg 74%
06:00 +21°C° 0 mm 1 mps 740 mmHg 69%
07:00 +22°C° 0 mm 1 mps 741 mmHg 64%
08:00 +24°C° 0 mm 1 mps 740 mmHg 59%
09:00 +26°C° 0 mm 2 mps 740 mmHg 54%
10:00 +28°C° 0 mm 2 mps 740 mmHg 49%
11:00 +29°C° 0 mm 2 mps 740 mmHg 47%
12:00 +30°C° 0 mm 2 mps 740 mmHg 46%
13:00 +31°C° 0 mm 3 mps 739 mmHg 45%
14:00 +31°C° 0 mm 3 mps 739 mmHg 44%
15:00 +33°C° 0 mm 3 mps 739 mmHg 43%
16:00 +33°C° 0 mm 3 mps 738 mmHg 42%
17:00 +30°C° 0 mm 2 mps 738 mmHg 51%
18:00 +29°C° 0 mm 2 mps 738 mmHg 60%
19:00 +27°C° 0 mm 1 mps 738 mmHg 69%
20:00 +26°C° 0 mm 1 mps 738 mmHg 72%
21:00 +24°C° 0 mm 1 mps 739 mmHg 76%
22:00 +23°C° 0 mm 1 mps 739 mmHg 79%
23:00 +22°C° 0.2 mm 1 mps 739 mmHg 83%
Show more